Location: Flotzheim
(48.8375°N, 10.8136°E)
Time: 16:52:36
(UTC+00:00)

Cosmos 1818 - Pass Details

Date: 23 January 2021
Orbit: 773 x 800 km, 65.0° (Epoch: 28 February)

Event Time Altitude Azimuth Distance (km) Brightness Sun altitude
Rises 16:50:11 0° 198° (SSW) 3,264 7.4 -8.3°
Reaches altitude 10° 16:52:38 10° 193° (SSW) 2,344 6.5 -8.7°
Maximum altitude 16:57:48 48° 120° (ESE) 1,024 3.9 -9.5°
Enters shadow 17:02:59 10° 47° (NE) 2,356 5.5 -10.3°
